Hourly Data Report for September 02, 2006

TORONTO CITY
ONTARIO

43°40'00.000" N
79°24'00.000" W
112.50 m
6158355
71508
XTO

Download Data

Hourly Data (September 2006)
Hourly Data Report for September 2, 2006
TIME
LST
Temp Definition
°C
Dew Point Definition
°C
Rel Hum Definition
%
Precip. Amount Definition
mm

Wind Dir Definition
10's deg

Wind Spd Definition
km/h
Visibility Definition
km
Stn Press Definition
kPa
Hmdx Definition


Wind Chill Definition


Weather Definition


00:00 19.0 14.0 73   LegendMM LegendMM   101.00     LegendNANA
01:00 19.5 14.6 73   LegendMM LegendMM   100.98     LegendNANA
02:00 19.1 14.8 76   LegendMM LegendMM   100.94     LegendNANA
03:00 18.8 14.9 78   LegendMM LegendMM   100.94     LegendNANA
04:00 18.3 14.5 79   LegendMM LegendMM   100.96     LegendNANA
05:00 18.2 14.9 81   LegendMM LegendMM   100.96     LegendNANA
06:00 19.1 14.5 75   LegendMM LegendMM   100.99     LegendNANA
07:00 18.9 13.3 70   LegendMM LegendMM   101.04     LegendNANA
08:00 18.8 13.0 69   LegendMM LegendMM   101.06     LegendNANA
09:00 18.8 12.6 67   LegendMM LegendMM   101.04     LegendNANA
10:00 18.1 12.3 69   LegendMM LegendMM   101.05     LegendNANA
11:00 17.6 13.4 76   LegendMM LegendMM   101.02     LegendNANA
12:00 16.9 14.2 84   LegendMM LegendMM   100.97     LegendNANA
13:00 16.9 14.8 87   LegendMM LegendMM   100.89     LegendNANA
14:00 16.0 14.2 89   LegendMM LegendMM   100.84     LegendNANA
15:00 15.8 13.8 88   LegendMM LegendMM   100.78     LegendNANA
16:00 15.1 13.8 92   LegendMM LegendMM   100.81     LegendNANA
17:00 14.9 14.1 95   LegendMM LegendMM   100.74     LegendNANA
18:00 14.8 14.1 96   LegendMM LegendMM   100.66     LegendNANA
19:00 14.8 14.1 96   LegendMM LegendMM   100.60     LegendNANA
20:00 14.3 13.7 96   LegendMM LegendMM   100.56     LegendNANA
21:00 14.0 13.5 97   LegendMM LegendMM   100.53     LegendNANA
22:00 13.7 13.1 96   LegendMM LegendMM   100.48     LegendNANA
23:00 13.6 13.1 97   LegendMM LegendMM   100.40     LegendNANA

Notes on Data Quality.

Legend

  • E = Estimated
  • M = Missing
  • NA = Not Available*
  • [empty] = Indicates an unobserved value
Date modified: